Temperature
24 26 26 27 27 27 27 27 26 26 25 26 25 24 22 20 20 19 18 17 16 15 14 14 14 14 14 14 14 14 14 15 15 14 14 14 14 14 13 13 14 14 14 14
25 26 26 26 26 26 26 26 26 25 24 25 24 23 22 20 20 19 18 17 16 15 14 14 13 13 14 14 14 14 14 14 14 14 14 14 13 13 13 13 13 13 13 13
26 26 26 26 26 26 26 26 26 25 24 24 24 22 21 21 19 19 18 17 16 15 14 14 13 13 13 13 13 13 14 14 13 13 13 13 13 12 12 12 12 12 13 13
26 26 25 26 26 26 26 26 26 25 25 25 24 24 23 21 20 19 18 17 16 15 14 14 13 13 12 12 13 13 13 13 13 13 13 12 12 12 12 12 12 12 12 12
26 26 26 26 26 26 26 26 26 25 25 25 24 24 24 22 21 20 18 17 15 14 14 13 13 12 12 12 12 12 12 12 12 12 12 12 12 12 11 11 11 11 11 11
26 26 26 26 25 25 25 25 25 25 26 24 25 24 24 23 22 21 19 17 15 14 13 13 12 12 12 12 12 12 12 11 11 11 12 11 11 11 11 11 11 11 10 10
25 26 25 25 25 25 25 25 24 24 24 24 24 24 23 23 22 21 19 16 14 13 13 12 12 12 12 11 11 11 11 11 11 11 11 11 11 11 10 10 10 10 10 10
25 25 25 25 25 25 25 25 24 23 24 25 24 23 22 21 20 19 18 16 14 13 13 12 12 11 11 11 11 11 11 10 10 10 11 11 10 10 10 9 9 9 9 9
25 24 25 25 25 25 25 25 26 25 24 24 24 23 21 20 19 18 16 15 14 13 12 12 11 11 11 10 10 10 10 10 10 10 10 10 9 9 9 9 9 9 9 9
25 24 25 25 25 24 25 25 25 24 23 23 23 23 22 20 19 17 16 14 14 13 12 11 11 10 10 10 10 10 10 10 9 9 9 9 9 9 9 9 8 8 8 8
25 24 24 24 24 24 24 24 24 24 24 23 22 22 21 20 19 17 16 14 13 12 11 11 10 10 10 10 9 9 9 9 9 9 9 9 8 8 8 8 8 8 8 8
24 24 24 24 23 23 24 24 24 23 23 23 23 21 19 20 18 17 15 14 13 12 11 11 10 10 9 9 9 9 9 9 9 8 8 8 8 8 8 8 8 8 8 8
23 23 22 22 23 23 23 23 23 23 23 22 22 21 18 18 17 16 14 13 12 11 11 10 10 10 9 9 9 9 9 8 8 8 8 8 8 8 8 8 7 7 7 7
22 22 22 22 22 23 22 22 23 23 23 22 22 20 18 17 16 15 13 12 12 11 11 10 10 10 9 9 9 9 8 8 8 8 8 8 7 7 7 7 7 7 7 7
22 22 22 22 22 22 22 22 22 22 22 22 21 20 19 17 16 14 13 12 11 11 10 10 10 9 9 9 9 8 8 8 8 8 8 7 7 7 7 7 7 7 7 7
21 21 22 21 22 22 21 21 21 21 21 21 20 19 18 16 15 14 12 12 12 11 10 10 10 9 9 9 8 8 8 8 8 8 7 7 7 7 7 7 7 7 7 7
22 21 21 21 21 21 20 21 21 20 21 20 20 19 17 16 15 13 12 12 12 11 10 10 9 9 9 8 8 8 8 8 7 7 7 7 7 7 7 7 7 7 7 7
21 21 21 21 21 20 20 20 20 20 20 20 19 18 17 16 14 13 12 12 11 11 10 10 9 9 8 8 8 8 8 8 7 7 7 7 7 7 7 7 7 7 7 7
21 21 21 21 21 20 20 20 20 20 19 19 18 17 16 14 14 13 12 11 11 10 10 9 9 9 8 8 8 8 8 7 7 7 7 7 7 7 7 7 7 7 7 7
20 21 21 21 20 20 20 20 19 20 19 18 17 16 15 15 16 14 11 11 10 10 9 9 9 8 8 8 8 8 7 7 7 7 7 7 7 7 7 6 6 6 6 7
20 20 20 20 20 20 20 19 19 19 18 17 16 16 15 15 15 13 11 10 10 9 9 9 8 8 8 8 8 7 7 7 7 7 7 7 7 7 6 6 6 6 7 7
21 21 20 20 20 19 18 19 19 18 17 16 16 15 14 13 12 11 11 10 9 9 9 8 8 8 8 8 7 7 7 7 7 7 7 7 7 7 7 6 6 6 7 7
20 20 21 20 19 18 17 17 16 16 16 15 15 14 13 12 12 11 10 10 9 9 8 8 8 8 8 7 7 7 7 7 7 7 7 7 7 7 7 7 7 7 7 7
19 18 19 19 19 18 17 16 16 16 15 15 14 13 13 12 11 11 10 10 9 9 8 8 8 8 8 7 7 7 7 7 7 7 7 7 7 7 7 7 7 7 8 8
20 19 19 19 19 18 17 16 15 15 14 14 13 13 13 12 11 11 10 10 9 9 8 8 8 8 8 7 7 7 7 7 7 7 7 7 7 7 7 7 7 7 7 7
19 19 19 19 18 18 17 16 15 15 14 14 13 13 12 12 11 11 10 10 9 9 9 8 8 8 8 8 8 7 7 7 7 7 7 8 8 8 8 8 8 8 7 7
Wind_Speed
6 8 8 7 4 2 5 7 8 7 6 7 8 10 11 10 10 11 11 10 10 9 9 9 8 7 7 7 7 6 6 5 4 2 2 2 2 3 3 4 5 5 5 4
8 7 4 4 4 5 7 8 8 7 6 5 8 9 9 10 10 10 11 10 10 10 9 8 7 7 7 7 7 6 6 6 5 3 2 2 2 2 3 4 5 5 5 5
5 6 5 6 7 7 7 7 8 9 8 7 8 8 10 10 8 9 9 10 10 10 10 8 7 7 6 6 6 6 6 6 5 4 2 3 3 2 2 3 3 5 5 5
4 5 5 7 7 7 7 5 7 10 10 7 9 7 11 12 11 11 10 10 10 10 9 8 8 7 6 6 6 6 6 6 6 5 5 4 4 3 3 3 4 5 6 6
5 4 5 5 3 4 2 5 8 9 7 5 8 7 7 12 12 12 12 11 11 10 10 9 8 7 7 6 6 6 6 6 6 6 6 5 5 4 3 3 4 4 5 6
4 3 0 1 3 4 7 7 6 7 8 8 6 7 4 7 9 10 12 12 12 11 10 9 8 7 7 6 6 5 6 7 6 6 6 6 6 5 5 4 4 4 4 5
7 6 4 3 5 7 7 7 6 8 8 6 4 5 0 3 3 6 10 12 12 11 11 10 9 8 7 6 5 5 6 7 6 6 7 6 6 5 5 4 5 5 4 5
7 7 4 2 3 4 7 8 7 7 6 3 5 4 3 4 3 4 8 11 12 11 10 9 8 8 7 6 5 5 6 6 6 6 6 6 5 4 5 5 5 5 5 6
3 3 5 2 0 3 5 6 5 7 7 6 3 2 3 4 5 7 9 11 12 11 11 10 8 8 7 7 6 5 6 6 5 6 6 6 6 6 6 5 5 5 5 5
2 3 4 3 4 1 3 2 4 6 6 7 5 4 2 4 5 7 9 10 11 11 11 10 8 7 7 7 6 5 5 5 5 5 5 5 6 6 6 6 7 7 6 7
2 4 4 5 3 2 3 4 4 6 7 7 6 0 4 3 4 7 8 9 11 12 11 10 8 8 7 7 6 5 5 5 5 6 6 6 6 6 6 6 7 7 6 6
1 3 3 3 2 1 3 3 5 6 6 6 7 1 5 3 5 7 8 9 10 11 10 10 9 8 8 7 6 6 5 6 6 6 6 6 6 6 6 7 6 6 6 6
1 3 4 6 5 4 3 2 4 5 5 6 7 1 5 6 7 7 9 10 10 10 10 10 9 8 7 7 6 6 6 6 6 6 6 6 6 7 7 7 7 6 6 7
2 3 4 4 1 0 3 2 3 6 6 5 4 1 3 6 7 7 8 9 10 10 10 10 9 8 7 7 7 6 6 6 6 6 6 6 6 6 6 6 6 7 6 6
2 2 1 0 0 1 2 2 2 4 5 5 3 1 2 5 6 7 8 9 10 9 9 9 9 8 8 7 7 6 6 5 5 6 6 6 5 5 5 6 6 6 6 6
1 2 2 3 3 2 1 1 2 2 3 2 2 1 5 7 7 8 8 9 10 10 9 9 9 8 8 7 7 6 6 5 5 5 6 5 5 5 5 5 5 6 6 6
3 3 3 3 3 4 2 1 1 0 1 3 3 1 6 7 7 8 8 9 9 9 10 10 9 8 7 7 7 6 6 6 6 6 5 5 4 5 5 5 5 6 6 6
3 3 3 3 4 4 2 3 1 0 2 3 3 4 5 6 6 6 7 8 9 9 9 9 8 8 7 7 7 6 6 6 6 6 5 4 4 4 4 4 5 5 5 5
2 3 3 4 4 2 3 1 2 2 0 2 3 6 7 7 7 6 6 7 8 9 9 8 8 8 8 8 8 7 6 6 6 5 5 4 4 3 3 4 4 4 4 5
3 4 4 4 4 2 2 2 1 4 2 4 3 6 7 7 4 5 8 8 9 9 9 9 9 9 8 8 8 7 7 6 5 5 4 4 3 3 3 4 3 4 3 4
4 3 4 4 4 0 3 1 2 3 2 3 3 6 7 4 3 9 11 10 11 10 10 10 10 9 8 9 8 7 7 6 5 5 4 4 3 3 3 3 3 3 3 4
3 3 3 3 3 1 3 1 1 4 3 4 5 7 8 7 9 12 12 12 12 11 11 10 9 8 8 9 8 8 7 5 5 4 4 4 3 3 3 2 2 2 2 3
2 2 1 1 3 5 3 3 3 3 4 4 6 8 9 9 10 12 12 12 12 11 11 10 9 9 8 8 7 8 7 6 5 5 4 4 4 3 2 2 2 2 1 2
3 1 1 2 3 4 4 4 3 3 4 5 7 9 10 10 12 12 12 11 11 11 11 10 10 10 9 8 7 7 7 6 5 5 4 4 4 3 3 1 1 2 3 3
2 4 3 3 4 5 4 4 4 5 6 8 8 9 9 11 12 12 11 11 10 10 10 9 9 9 9 9 8 7 7 6 6 5 4 4 4 3 3 2 2 3 4 4
3 3 3 2 4 3 5 5 6 6 7 8 9 9 9 10 11 11 11 10 10 10 10 10 10 9 9 9 8 7 7 6 5 5 4 3 3 3 2 3 3 2 1 1
Wind_Direction
188 200 187 173 205 157 173 178 167 147 153 188 179 163 163 168 173 168 162 156 148 135 120 111 104 96 88 78 74 67 56 44 41 52 69 80 75 70 63 52 39 29 18 12
188 182 150 153 174 192 186 181 161 146 152 186 170 170 170 178 184 178 169 164 157 141 129 120 110 99 89 80 72 69 60 50 40 39 51 70 78 80 66 50 44 29 22 14
185 121 144 182 181 189 195 199 176 160 154 170 172 183 187 184 186 180 173 167 163 154 146 135 121 106 94 85 77 70 62 59 49 43 75 96 105 98 64 47 42 30 27 27
157 138 181 193 186 203 187 190 184 171 187 185 206 218 189 185 186 185 176 171 165 158 151 143 133 118 102 92 84 74 65 59 54 52 61 72 69 65 47 33 36 31 33 25
147 158 189 186 171 215 133 154 182 195 220 213 212 244 175 178 196 192 184 175 164 157 153 147 137 125 111 98 86 72 66 60 55 54 60 63 63 63 58 49 45 28 36 28
134 143 94 96 109 146 139 153 169 208 225 232 219 244 198 182 205 189 180 173 160 152 149 144 137 130 115 103 93 83 76 67 61 61 63 61 61 59 55 43 36 30 33 27
163 151 133 149 152 165 198 206 216 220 226 233 184 240 172 113 163 183 175 165 157 152 148 147 145 138 122 110 98 87 80 74 66 64 62 60 61 67 62 40 36 21 21 21
191 168 148 168 231 207 217 246 262 267 261 236 184 231 96 84 109 146 151 151 151 151 148 146 145 139 129 118 105 95 86 78 70 66 63 60 54 53 56 47 34 32 23 21
211 157 130 122 251 264 222 241 292 278 275 270 231 172 136 107 119 127 138 147 153 152 148 147 144 134 128 118 109 101 92 86 73 66 67 67 58 52 54 49 41 41 32 25
262 207 159 158 191 106 306 259 248 262 268 266 242 222 191 152 146 144 151 154 151 148 148 145 137 129 122 116 112 105 96 91 81 74 67 71 65 59 56 50 47 42 36 31
259 228 182 188 224 234 204 218 254 269 283 282 274 129 59 121 152 161 157 155 153 151 150 144 138 135 130 125 121 115 108 99 88 78 71 68 65 61 58 53 48 45 38 29
232 257 222 188 107 334 278 276 254 263 262 271 285 61 61 90 134 144 145 146 147 149 148 145 143 142 138 131 123 113 106 99 90 84 80 73 67 60 57 53 46 45 39 31
179 227 224 196 182 188 223 252 264 268 272 274 277 148 84 98 112 124 135 141 142 147 149 147 146 145 137 130 121 113 108 103 97 93 84 75 68 62 54 49 47 45 41 37
270 248 269 278 4 231 224 240 258 263 265 274 284 262 128 117 122 123 132 140 144 149 152 149 147 143 139 135 128 121 112 107 100 91 83 75 69 64 55 51 49 47 42 43
243 205 178 142 115 248 267 273 266 270 296 295 317 336 134 139 137 135 140 145 148 149 151 151 150 145 146 139 130 123 117 110 103 95 86 80 75 70 60 53 51 48 45 46
180 194 182 184 172 191 236 288 271 285 301 289 282 52 114 131 134 140 149 153 153 153 152 152 151 151 149 142 135 127 125 118 108 98 91 85 80 75 62 54 52 53 50 46
180 201 232 221 209 232 235 315 293 312 358 312 313 97 143 148 152 157 160 159 156 154 154 156 157 155 149 143 135 133 128 124 113 102 95 91 84 74 63 59 60 59 55 48
185 210 232 234 224 237 88 70 22 4 37 27 65 118 148 148 143 148 157 157 152 152 153 155 153 149 145 140 136 131 128 125 115 108 105 100 90 81 70 66 64 60 53 48
211 227 242 242 232 210 154 157 277 274 120 81 117 132 135 133 137 138 145 148 149 150 148 148 147 145 142 141 137 133 127 123 119 114 110 101 94 90 80 73 66 59 54 53
164 225 241 241 254 255 93 58 326 259 188 114 138 148 148 164 180 150 147 144 142 141 140 140 141 140 141 141 138 135 129 128 123 119 113 108 103 97 84 73 64 60 59 60
181 201 230 239 246 172 57 17 245 261 57 111 145 150 157 168 75 124 139 140 138 138 139 141 142 141 140 140 140 136 130 122 118 112 108 102 98 102 93 76 60 54 59 60
222 212 215 242 243 136 66 146 359 33 73 123 137 145 145 119 115 130 138 139 141 142 142 144 142 138 138 141 143 137 129 127 126 119 110 101 99 97 95 84 66 57 53 78
232 330 330 6 57 83 85 68 61 70 108 125 140 143 140 133 134 138 140 142 144 144 144 144 140 136 138 144 146 138 136 139 137 132 121 117 111 99 92 93 94 99 82 57
158 133 168 152 130 119 112 99 91 93 111 122 137 144 145 141 141 142 143 146 147 146 146 148 147 145 145 148 146 143 144 146 142 136 131 132 132 126 114 75 70 56 48 49
157 174 184 171 145 143 134 116 111 112 116 123 131 141 146 145 147 148 147 148 149 149 149 152 150 148 149 152 152 151 151 152 150 145 142 145 140 124 124 102 49 27 43 28
185 197 216 174 156 164 141 134 129 130 129 132 137 139 143 148 149 149 148 150 152 152 153 155 155 153 153 156 155 155 159 162 162 157 157 157 145 133 138 131 130 112 352 100
Height
1512 1508 1504 1503 1503 1502 1504 1507 1511 1514 1517 1518 1520 1527 1534 1538 1541 1544 1547 1549 1552 1555 1557 1558 1559 1559 1560 1560 1561 1562 1562 1562 1563 1563 1564 1564 1564 1564 1564 1564 1563 1562 1562 1562
1509 1505 1504 1506 1507 1507 1507 1509 1512 1517 1519 1519 1523 1529 1533 1538 1540 1543 1546 1549 1552 1554 1557 1558 1559 1560 1560 1560 1561 1562 1562 1562 1562 1562 1562 1562 1562 1563 1563 1562 1562 1561 1561 1560
1501 1504 1507 1508 1508 1509 1508 1507 1509 1515 1519 1520 1524 1531 1533 1536 1540 1543 1546 1548 1551 1554 1556 1558 1559 1560 1560 1561 1561 1561 1562 1562 1562 1561 1561 1561 1562 1562 1562 1562 1561 1560 1559 1558
1502 1505 1507 1506 1506 1505 1508 1505 1508 1513 1516 1517 1520 1525 1525 1530 1536 1540 1544 1547 1550 1553 1556 1558 1559 1560 1560 1561 1561 1562 1562 1562 1561 1561 1561 1561 1561 1561 1561 1561 1560 1559 1558 1557
1504 1505 1505 1505 1505 1505 1506 1507 1508 1510 1510 1514 1517 1518 1517 1524 1531 1535 1541 1545 1549 1552 1554 1557 1559 1560 1560 1561 1561 1561 1562 1562 1561 1561 1561 1561 1561 1561 1561 1560 1559 1558 1557 1556
1503 1506 1505 1506 1507 1507 1508 1509 1510 1509 1508 1520 1513 1518 1518 1519 1524 1529 1537 1543 1547 1550 1553 1556 1558 1559 1560 1561 1562 1562 1562 1562 1562 1562 1561 1561 1561 1560 1560 1560 1559 1558 1557 1556
1505 1504 1506 1508 1508 1509 1507 1510 1517 1519 1518 1515 1510 1516 1520 1519 1523 1527 1533 1540 1545 1549 1552 1555 1557 1559 1560 1561 1562 1562 1563 1563 1562 1562 1561 1561 1561 1560 1559 1559 1558 1557 1557 1555
1506 1508 1506 1506 1506 1506 1505 1506 1516 1524 1519 1511 1513 1516 1519 1523 1527 1530 1534 1539 1544 1548 1551 1554 1557 1558 1559 1560 1561 1562 1562 1563 1563 1562 1561 1560 1560 1560 1559 1558 1558 1557 1556 1554
1503 1507 1506 1508 1507 1505 1505 1504 1501 1508 1509 1514 1511 1515 1521 1526 1529 1532 1535 1539 1543 1547 1551 1554 1556 1558 1559 1560 1561 1562 1562 1563 1563 1562 1561 1561 1560 1559 1559 1558 1558 1557 1555 1554
1502 1508 1506 1507 1507 1508 1505 1504 1508 1510 1520 1522 1515 1515 1519 1524 1529 1533 1537 1540 1543 1547 1551 1554 1556 1557 1559 1560 1561 1562 1563 1563 1563 1562 1562 1561 1560 1559 1558 1558 1557 1556 1555 1554
1504 1508 1508 1507 1508 1506 1509 1509 1508 1506 1508 1517 1521 1521 1518 1522 1527 1532 1536 1540 1544 1547 1550 1553 1556 1557 1559 1560 1562 1563 1563 1563 1563 1563 1562 1561 1561 1560 1560 1559 1558 1557 1556 1554
1507 1506 1508 1508 1509 1509 1507 1507 1509 1515 1514 1511 1514 1525 1524 1524 1528 1532 1537 1541 1544 1547 1550 1553 1555 1558 1559 1561 1562 1563 1563 1564 1564 1564 1563 1562 1562 1562 1561 1560 1559 1558 1557 1556
1509 1511 1516 1515 1515 1512 1510 1510 1509 1508 1510 1513 1516 1525 1526 1527 1531 1535 1538 1541 1545 1548 1551 1553 1555 1558 1559 1561 1562 1563 1564 1564 1565 1565 1564 1563 1563 1563 1562 1561 1560 1559 1558 1556
1511 1510 1513 1517 1513 1510 1512 1512 1510 1509 1510 1513 1514 1520 1525 1529 1533 1537 1540 1542 1545 1548 1551 1553 1555 1557 1559 1561 1562 1563 1564 1565 1565 1565 1565 1565 1564 1564 1563 1562 1561 1560 1559 1558
1511 1511 1511 1511 1511 1511 1513 1512 1512 1512 1511 1514 1515 1518 1524 1529 1534 1538 1541 1543 1546 1548 1551 1553 1555 1557 1559 1560 1562 1563 1564 1565 1566 1566 1566 1566 1565 1565 1565 1564 1562 1561 1560 1559
1511 1512 1512 1514 1512 1512 1514 1514 1513 1514 1514 1515 1517 1522 1526 1531 1535 1538 1541 1543 1545 1548 1551 1553 1555 1557 1559 1560 1561 1563 1564 1565 1566 1567 1567 1567 1567 1566 1566 1565 1564 1563 1561 1560
1510 1513 1515 1515 1512 1514 1518 1515 1515 1516 1515 1516 1519 1524 1528 1532 1535 1538 1540 1543 1545 1548 1550 1552 1555 1557 1558 1560 1561 1563 1565 1566 1567 1567 1568 1568 1568 1568 1567 1567 1565 1564 1563 1561
1512 1513 1513 1513 1517 1525 1520 1516 1517 1518 1518 1519 1521 1525 1529 1532 1536 1539 1541 1543 1545 1548 1550 1553 1554 1556 1558 1560 1562 1564 1565 1566 1567 1568 1569 1569 1569 1569 1568 1568 1566 1565 1564 1563
1513 1513 1512 1513 1514 1517 1517 1517 1517 1517 1519 1521 1523 1527 1530 1534 1536 1539 1542 1544 1546 1548 1550 1553 1555 1556 1558 1560 1562 1564 1566 1567 1568 1569 1569 1570 1570 1570 1569 1569 1568 1566 1565 1564
1514 1512 1511 1513 1518 1520 1519 1516 1518 1519 1520 1523 1525 1527 1531 1533 1532 1537 1542 1544 1546 1549 1551 1553 1555 1557 1559 1561 1563 1565 1567 1568 1569 1570 1570 1570 1571 1570 1570 1569 1569 1568 1567 1566
1513 1513 1512 1513 1516 1515 1517 1518 1518 1521 1523 1524 1526 1528 1531 1532 1533 1537 1541 1544 1546 1549 1551 1554 1556 1558 1560 1561 1563 1565 1567 1569 1570 1570 1571 1571 1571 1571 1571 1570 1570 1569 1568 1567
1510 1510 1513 1513 1516 1521 1519 1518 1519 1523 1524 1525 1527 1529 1531 1533 1536 1538 1541 1544 1547 1550 1552 1555 1557 1559 1561 1563 1565 1566 1568 1569 1570 1571 1571 1571 1572 1572 1572 1571 1571 1570 1569 1569
1510 1511 1509 1514 1518 1521 1521 1522 1524 1524 1525 1526 1528 1530 1532 1535 1537 1540 1543 1545 1548 1551 1553 1555 1558 1560 1562 1564 1566 1567 1569 1570 1571 1572 1572 1572 1573 1573 1573 1572 1572 1572 1571 1570
1513 1516 1514 1516 1518 1521 1523 1524 1525 1525 1526 1527 1529 1531 1533 1535 1538 1541 1544 1546 1549 1552 1554 1556 1559 1561 1563 1565 1567 1568 1569 1570 1572 1573 1573 1574 1574 1574 1574 1574 1574 1573 1573 1572
1511 1514 1514 1516 1518 1521 1523 1524 1525 1526 1527 1529 1530 1532 1534 1536 1539 1542 1544 1547 1550 1553 1555 1557 1560 1562 1564 1565 1567 1569 1570 1571 1572 1573 1574 1575 1575 1575 1575 1575 1574 1574 1573 1573
1512 1513 1513 1513 1518 1519 1523 1525 1526 1527 1528 1530 1531 1534 1536 1537 1540 1543 1545 1548 1551 1553 1555 1558 1560 1562 1564 1566 1568 1569 1570 1572 1573 1574 1575 1575 1576 1576 1576 1576 1575 1575 1574 1573